Tracking 27401 objects as of 4-Jun-2023
HD Live streaming from Space Station
objects crossing your sky now

COSMOS 1375 DEB

Track COSMOS 1375 DEB now!
10-day predictions


NORAD ID: 16383
Int'l Code: 1982-055X
Perigee: 952.9 km
Apogee: 1,026.1 km
Inclination: 65.8 °
Period: 104.7 minutes
Semi major axis: 7360 km
RCS: 0.1937 m2 (medium)
Launch date: June 6, 1982
Source: Commonwealth of Independent States (former USSR) (CIS)
Launch site: PLESETSK MISSILE AND SPACE COMPLEX (PKMTR)

Note: This is SATELLITE DEBRIS
Your satellite tracking list
Your tracking list is empty




NASA's NSSDC Master Catalog

Two Line Element Set (TLE):
1 16383U 82055X   23154.46819656  .00000301  00000-0  39671-3 0  9994
2 16383  65.8284 144.1680 0049748 197.7909 244.0123 13.74804704882499
Source of the keplerian elements: AFSPC